Regional Weather Roundup
Issued by NWS

Home | Current Version | Previous Version | Graphics & Text | Print | Product List | Glossary On
Versions: 1 2 3 4 5 6 7 8 9 10 11 12 13 14 15 16 17 18 19 20 21 22 23 24 25 26 27 28 29 30 31 32 33 34 35 36 37 38 39 40 41 42 43 44 45 46 47 48 49 50
000
ASUS43 KLOT 281609
RWRIL

ILLINOIS REGIONAL WEATHER ROUNDUP
NATIONAL WEATHER SERVICE CHICAGO/ROMEOVILLE IL
1100 AM CDT FRI JUL 28 2017

NOTE: "FAIR" INDICATES FEW OR NO CLOUDS BELOW 12,000 FEET WITH NO
SIGNIFICANT WEATHER AND/OR OBSTRUCTIONS TO VISIBILITY.

* THESE STATIONS ARE NOT UNDER NWS QUALITY CONTROL. THEY ALSO MAY NOT
  REPORT WEATHER SUCH AS PRECIPITATION OR FOG.

ILZ001-002-007-009-015-016-024-281700-
NORTHWEST ILLINOIS

CITY           SKY/WX    TMP DP  RH WIND       PRES   REMARKS
MOLINE         SUNNY     77  56  48 NE10      30.02S
STERLING*      SUNNY     76  59  55 NE10      30.03S
SAVANNA*       SUNNY     75  57  53 NE13      30.04S
$$

ILZ003-004-008-010-011-017-018-281700-
NORTH CENTRAL ILLINOIS

CITY           SKY/WX    TMP DP  RH WIND       PRES   REMARKS
ROCKFORD       MOSUNNY   78  56  46 NE10      30.03F
FREEPORT*      SUNNY     73  57  57 N9        30.06S
ROCHELLE*      MOSUNNY   74  64  70 N13       30.02F
DE KALB*       MOSUNNY   74  65  75 N8        30.03S
PERU*          MOSUNNY   74  65  72 NE9       30.00S
$$

ILZ005-006-012>014-019>023-281700-
NORTHEAST ILLINOIS

CITY           SKY/WX    TMP DP  RH WIND       PRES   REMARKS
CHICAGO-OHARE  PTSUNNY   76  61  59 NE14      30.00R
CHICAGO-MIDWAY PTSUNNY   76  62  62 N13       29.99R
AURORA         MOSUNNY   77  66  68 NE12      30.01R
LANSING*       SUNNY     74  62  64 NE9G16    29.99R
JOLIET*        MOSUNNY   77  66  69 NE14G20   29.99S
WAUKEGAN       MOSUNNY   72  63  73 NE10      30.02S
DUPAGE AIRPORT MOSUNNY   76  63  64 E14G20    30.00S
KANKAKEE*      SUNNY     77  63  61 NE6       29.97S
WHEELING       MOSUNNY   74  65  73 NE14      30.03R
MORRIS*        MOSUNNY   77  65  68 N3        29.98S
ROMEOVILLE*    PTSUNNY   75  62  62 NE13      30.00R
NORTHERLY ISL    N/A     74  63  68 N15         N/A
$$

LMZ740>746-281700-
SOUTHERN LAKE MICHIGAN

STATION/POSITION SKY/WX   TEMP    WIND        PRES    VSBY  WAVE
                          AIR SEA DIR/SP/G                  HT/PER
                          (F)     (DEG/KT/KT) (MB)    (MI)  (FT/S)
SOUTHERN BUOY              69 71   30/ 12/ 14 1016.2          2/ 5
WILMETTE HARBOR            70 71   20/ 12/ 16   N/A           4/ 5
HARRISON CRIB              71      40/ 14/ 16   N/A
BURNHAM HARBOR             74                   N/A
CALUMET HARBOR             72     360/ 11/ 16 1015.4R
BURNS HARBOR               70      30/ 14/ 15 1015.9R
MICHIGAN CITY              69      10/ 15/ 16   N/A
MICHIGAN CITY 6N           70 74   30/ 12/ 16   N/A           4/ 5
ST. JOSEPH                 69 71   30/ 14/ 19 1015.3          3/ 5
$$

ILZ025>027-034>036-040-047-049-050-058-095>099-281700-
WEST-CENTRAL ILLINOIS

CITY           SKY/WX    TMP DP  RH WIND       PRES   REMARKS
QUINCY         SUNNY     78  62  57 N14       29.99R HX  80
GALESBURG*     SUNNY     74  65  73 NE12      30.02S
MACOMB*        SUNNY     76  67  73 NE9       30.02R
JACKSONVILLE*  SUNNY     76  66  69 N9        29.97R
PITTSFIELD*    SUNNY     78  66  67 N8        29.99S HX  80
$$

ILZ028>032-037-038-041>044-048-051>054-059>061-281700-
CENTRAL ILLINOIS

CITY           SKY/WX    TMP DP  RH WIND       PRES   REMARKS
PONTIAC        PTSUNNY   77  72  83 N14       29.98F
BLOOMINGTON    PTSUNNY   76  69  79 NE18      29.97S
DECATUR        CLOUDY    74  68  81 N13       29.94R
PEORIA         SUNNY     78  65  63 NE7       29.98S HX  80
LACON*         SUNNY     77  68  72 NE8       29.98S
LINCOLN*       PTSUNNY   77  71  81 N10G16    29.95S
SPRINGFIELD    SUNNY     79  69  71 NE13      29.96S HX  81
TAYLORVILLE    PTSUNNY   75  69  82 N10       29.95R
$$

ILZ033-039-045-046-055>057-062-063-281700-
EAST-CENTRAL ILLINOIS

CITY           SKY/WX    TMP DP  RH WIND       PRES   REMARKS
CHAMPAIGN      CLOUDY    74  69  85 NE12      29.94R HAZE
RANTOUL*       CLOUDY    79  70  74 NE13      29.94S HX  81
MATTOON        CLOUDY    73  72  96 N13       29.91R
PARIS*         CLOUDY    74  72  96 N8        29.91S FOG
$$

ILZ079-100>102-281700-
SOUTHWEST ILLINOIS

CITY           SKY/WX    TMP DP  RH WIND       PRES   REMARKS
ALTON          MOSUNNY   77  70  78 N12       29.93F
BELLEVILLE     SUNNY     80  70  71 N9        29.92S HX  82
CAHOKIA*       SUNNY     81  66  60 N12       29.92S HX  83
SPARTA*        SUNNY     79  70  74 N9        29.92S HX  82
$$

ILZ064>066-069>071-074>076-080>082-084>086-088>090-092>094-281700-
SOUTH-CENTRAL ILLINOIS

CITY           SKY/WX    TMP DP  RH WIND       PRES   REMARKS
CARBONDALE     CLOUDY    78  74  87 NW9       29.89S HX  81
CAIRO*         PTSUNNY   82  76  80 N9        29.85F HX  89
EFFINGHAM*     CLOUDY    76  72  87 NW9       29.92R
MARION         CLOUDY    79  79 100 N9        29.89S FOG     HX  83
MT. VERNON     PTSUNNY   81  73  76 VRB7      29.89S HX  86
CENTRALIA*     PTSUNNY   79  73  82 N9        29.90S HX  82
SALEM*         PTSUNNY   80  71  75 N7        29.90S HX  83
METROPOLIS*    CLOUDY    82  76  80 N12       29.86S HX  90
$$

ILZ067-068-072-073-078-083-087-091-281700-
SOUTHEAST ILLINOIS

CITY           SKY/WX    TMP DP  RH WIND       PRES   REMARKS
LAWRENCEVILLE  CLOUDY    76  72  87 N12       29.87R
FLORA*         PTSUNNY   80  73  79 N6        29.88F HX  84
FAIRFIELD*     CLOUDY    79  73  81 N3        29.87S HX  82
HARRISBURG*    CLOUDY    79  74  85 NW10      29.87S HX  83
ROBINSON*      CLOUDY    74  72  91 N9        29.88S
CARMI*         PTSUNNY   76  74  92 N7        29.86S
$$

ABBREVIATIONS USED IN REMARKS
   TC - TEMPERATURE IN CELSIUS
  WCI - WIND CHILL INDEX
   HX - HEAT INDEX
  VSB - VISIBILITY
$$





USA.gov is the U.S. government's official web portal to all federal, state and local government web resources and services.